Regional Weather Roundup
Issued by NWS Cleveland, OH

Home | Current Version | Previous Version | Text Only | Print | Product List | Glossary Off
Versions: 1 2 3 4 5 6 7 8 9 10 11 12 13 14 15 16 17 18 19 20 21 22 23 24 25 26 27 28 29 30 31 32 33 34 35 36 37 38 39 40 41 42 43 44 45 46 47 48 49 50

000
ASUS41 KCLE 271400
RWRCLE
OHIO REGIONAL WEATHER ROUNDUP
NATIONAL WEATHER SERVICE WILMINGTON, OH
1000 AM EDT WED MAY 27 2015

NOTE: "FAIR" INDICATES FEW OR NO CLOUDS BELOW 12,000 FEET WITH NO
SIGNIFICANT WEATHER AND/OR OBSTRUCTIONS TO VISIBILITY.

OHZ001>008-015>018-024>027-034-035-043-044-271500-
   NORTHWEST OHIO

CITY           SKY/WX    TMP DP  RH WIND       PRES   REMARKS
DEFIANCE       SUNNY     74  63  68 SW15G22   30.01R
FINDLAY        MOSUNNY   74  64  71 SW15      30.04S
TOLEDO EXPRESS SUNNY     73  62  68 SW16      30.00F
TOLEDO EXEC    SUNNY     73  62  68 SW17G25   30.01F
LIMA           MOSUNNY   71  63  75 SW17G23   30.06S
$$

OHZ009>014-019>023-028>033-038-089-271500-
   NORTHEAST OHIO

CITY           SKY/WX    TMP DP  RH WIND       PRES   REMARKS
CLE-HOPKINS    MOSUNNY   73  64  73 SW10      30.07F
CLE-LAKEFRONT  SUNNY     75  63  66 SW14      30.04F
CUY CO. ARPT   PTSUNNY   75  66  73 SW16      30.07S
LORAIN-ELYRIA  MOSUNNY   73  63  70 SW12      30.06S
ASHTABULA      MOSUNNY   73  65  75 SW13      30.08S
AKRON-CANTON   PTSUNNY   72  62  71 SW14      30.11S
WOOSTER        NOT AVBL
MANSFIELD      MOSUNNY   71  63  75 SW15      30.09F
YOUNGSTOWN     CLOUDY    70  63  78 SW13      30.11R
$$

OHZ042-051>053-060>062-070>072-077>081-271500-
  SOUTHWEST OHIO

CITY           SKY/WX    TMP DP  RH WIND       PRES   REMARKS
CINC-COVINGTON PTSUNNY   73  64  73 SW12G18   30.14R
CINC-LUNKEN    MOSUNNY   74  65  73 SW14G21   30.13R
HAMILTON       SUNNY     74  65  73 VRB5      30.13R
DAYTON         NOT AVBL
WRIGHT-PAT AFB NOT AVBL
DAYTON GENERAL PTSUNNY   71  64  78 SW9       30.11R
WILMINGTON     PTSUNNY   71  63  75 SW13      30.13R
$$

OHZ036-037-039>041-045>050-054>059-063>069-073>076-082>088-271500-
  CENTRAL AND SOUTHEAST OHIO

CITY           SKY/WX    TMP DP  RH WIND       PRES   REMARKS
COLUMBUS       PTSUNNY   72  65  78 S8        30.11S
OSU AIRPORT    PTSUNNY   72  63  73 SW14G23   30.11S
BOLTON FIELD   PTSUNNY   72  64  78 SW15      30.13S
RICKENBACK AFB NOT AVBL
NEWARK         PTSUNNY   72  64  76 SW13      30.11F
MARION         PTSUNNY   72  63  73 SW13      30.09R
LANCASTER      PTSUNNY   72  64  76 SW10      30.14S
ZANESVILLE     PTSUNNY   71  64  78 SW8       30.14R
NEW PHILLY     NOT AVBL
$$



USA.gov is the U.S. government's official web portal to all federal, state and local government web resources and services.